Lær å fly hos oss!

Oslo Flyveklubb har i mange år utdannet flygere til privatflygersetifikat PPL(A). Skolen har godkjenning for å drive utdanning til teoriundervisning til PPL(A), privatflygersertifikat PPL (A) og mørkeflyging.

Gi bort en flytur i gave

På en introduksjonstur vil kandidaten være med på forberedelser til, og gjennomføring av en flytur på en times varighet med en av våre instruktører.

Hvor vi holder til?

Flyplassen ligger i Lillestrøm 10 minutter med tog fra Oslo. Følg storgata fra Lillestrøms sentrum så vill man se plassen på venstre side.
Metar/TAF Gardermoen:

ENGM 201620Z 02008KT 8000 2900N -SHRA FEW014 SCT021 BKN026 13/12 Q1011 NOSIG

TAF ENGM 201100Z 2012/2112 36005KT 9999 -RA FEW012 BKN040 TEMPO 2012/2018 02015KT SHRA BKN012 SCT030CB TEMPO 2016/2106 4000 -DZRA BR BKN006 TEMPO 2111/2112 SCT025CB